,,,PA_Meas_PMT16A,,PR_Meas_QMR101_102,,RH_Meas_QMH101,,SR_Meas_QMS101,,TA_Meas_QMH101,,GenWind,,GenWind,
date,time,status,PA,status,PR,status,RH,status,SR,status,TA,status,DirAvg,status,SpdAvg,
2011-12-12, 00:00:04,VALID,1003.78,VALID,0,VALID,92.5688,VALID,0,VALID,24.2857,VALID,3,VALID,0,
2011-12-12, 00:01:04,VALID,1003.78,VALID,0,VALID,92.4544,VALID,0,VALID,24.307,VALID,3,VALID,0,
2011-12-12, 00:02:04,VALID,1003.78,VALID,0,VALID,92.5688,VALID,0,VALID,24.2644,VALID,3,VALID,0,
2011-12-12, 00:03:04,VALID,1003.76,VALID,0,VALID,92.546,VALID,0,VALID,24.2857,VALID,3,VALID,0,
2011-12-12, 00:04:04,VALID,1003.76,VALID,0,VALID,92.4163,VALID,0.0815089,VALID,24.3033,VALID,3,VALID,0,
2011-12-12, 00:05:04,VALID,1003.73,VALID,0,VALID,92.3781,VALID,0,VALID,24.3033,VALID,3,VALID,0.512109,
2011-12-12, 00:06:04,VALID,1003.7,VALID,0,VALID,92.4239,VALID,0,VALID,24.3033,VALID,3,VALID,0.473437,
2011-12-12, 00:07:04,VALID,1003.67,VALID,0,VALID,92.4773,VALID,0,VALID,24.3441,VALID,3,VALID,0.449609,
2011-12-12, 00:08:04,VALID,1003.66,VALID,0,VALID,92.4468,VALID,0,VALID,24.3441,VALID,3,VALID,0.319141,
2011-12-12, 00:09:04,VALID,1003.64,VALID,0,VALID,92.2713,VALID,0,VALID,24.3441,VALID,3,VALID,0.388672,
2011-12-12, 00:10:04,VALID,1003.58,VALID,0,VALID,92.1645,VALID,0,VALID,24.3246,VALID,3,VALID,0.323828,
2011-12-12, 00:11:04,VALID,1003.59,VALID,0,VALID,92.2103,VALID,0,VALID,24.3246,VALID,2,VALID,0.551172,
2011-12-12, 00:12:04,VALID,1003.56,VALID,0,VALID,92.0882,VALID,0,VALID,24.3441,VALID,1,VALID,0.439844,
2011-12-12, 00:13:04,VALID,1003.55,VALID,0,VALID,91.9967,VALID,0,VALID,24.383,VALID,359,VALID,0.619141,
2011-12-12, 00:14:04,VALID,1003.52,VALID,0,VALID,91.8594,VALID,0,VALID,24.4025,VALID,359,VALID,0.619531,
2011-12-12, 00:15:04,VALID,1003.48,VALID,0,VALID,91.867,VALID,0,VALID,24.4025,VALID,359,VALID,0.719531,
2011-12-12, 00:16:04,VALID,1003.47,VALID,0,VALID,91.8059,VALID,0,VALID,24.4006,VALID,359,VALID,0.704687,
2011-12-12, 00:17:04,VALID,1003.46,VALID,0,VALID,91.8288,VALID,0.0815089,VALID,24.4201,VALID,358,VALID,0.671094,
2011-12-12, 00:18:04,VALID,1003.45,VALID,0,VALID,91.8517,VALID,0,VALID,24.3812,VALID,358,VALID,0.753125,
2011-12-12, 00:19:04,VALID,1003.43,VALID,0,VALID,91.867,VALID,0,VALID,24.422,VALID,358,VALID,0.59375,
2011-12-12, 00:20:04,VALID,1003.44,VALID,0,VALID,91.8441,VALID,0,VALID,24.4201,VALID,358,VALID,0.507422,
2011-12-12, 00:21:04,VALID,1003.41,VALID,0,VALID,91.8746,VALID,0,VALID,24.4414,VALID,358,VALID,0.586328,
2011-12-12, 00:22:04,VALID,1003.39,VALID,0,VALID,91.8288,VALID,0,VALID,24.422,VALID,358,VALID,0.755078,
2011-12-12, 00:23:04,VALID,1003.37,VALID,0,VALID,91.7754,VALID,0,VALID,24.4396,VALID,358,VALID,0.730078,
2011-12-12, 00:24:04,VALID,1003.37,VALID,0,VALID,91.8288,VALID,0,VALID,24.4201,VALID,358,VALID,0.528125,
2011-12-12, 00:25:04,VALID,1003.32,VALID,0,VALID,91.8517,VALID,0,VALID,24.4609,VALID,358,VALID,0.558984,
2011-12-12, 00:26:04,VALID,1003.35,VALID,0,VALID,91.7831,VALID,0,VALID,24.4609,VALID,356,VALID,0.7,
2011-12-12, 00:27:04,VALID,1003.33,VALID,0,VALID,91.6534,VALID,0,VALID,24.459,VALID,347,VALID,0.653125,
2011-12-12, 00:28:04,VALID,1003.31,VALID,0,VALID,91.4932,VALID,0,VALID,24.498,VALID,350,VALID,0.463281,
2011-12-12, 00:29:04,VALID,1003.33,VALID,0,VALID,91.4169,VALID,0,VALID,24.5369,VALID,350,VALID,0.390625,
2011-12-12, 00:30:04,VALID,1003.31,VALID,0,VALID,91.2567,VALID,0,VALID,24.5564,VALID,350,VALID,0.501562,
2011-12-12, 00:31:04,VALID,1003.31,VALID,0,VALID,91.0354,VALID,0,VALID,24.6166,VALID,350,VALID,0.288672,
2011-12-12, 00:32:04,VALID,1003.3,VALID,0,VALID,91.0049,VALID,0,VALID,24.6361,VALID,350,VALID,0.46875,
2011-12-12, 00:33:04,VALID,1003.3,VALID,0,VALID,91.0354,VALID,0,VALID,24.6556,VALID,350,VALID,0.378516,
2011-12-12, 00:34:04,VALID,1003.3,VALID,0,VALID,90.9134,VALID,0,VALID,24.6945,VALID,350,VALID,0.414453,
2011-12-12, 00:35:04,VALID,1003.3,VALID,0,VALID,90.8829,VALID,0,VALID,24.6945,VALID,350,VALID,0.247266,
2011-12-12, 00:36:04,VALID,1003.32,VALID,0,VALID,90.7684,VALID,0,VALID,24.6945,VALID,350,VALID,0.348047,
2011-12-12, 00:37:04,VALID,1003.33,VALID,0,VALID,90.7074,VALID,0,VALID,24.714,VALID,350,VALID,0.257031,
2011-12-12, 00:38:04,VALID,1003.29,VALID,0,VALID,90.7684,VALID,0,VALID,24.7121,VALID,350,VALID,0.380078,
2011-12-12, 00:39:04,VALID,1003.32,VALID,0,VALID,90.7455,VALID,0,VALID,24.7335,VALID,350,VALID,0.378516,
2011-12-12, 00:40:04,VALID,1003.31,VALID,0,VALID,90.6464,VALID,0,VALID,24.7335,VALID,350,VALID,0.390234,
2011-12-12, 00:41:04,VALID,1003.3,VALID,0,VALID,90.7684,VALID,0,VALID,24.6732,VALID,350,VALID,0.439844,
2011-12-12, 00:42:04,VALID,1003.3,VALID,0,VALID,90.9057,VALID,0,VALID,24.6945,VALID,350,VALID,0.471875,
2011-12-12, 00:43:04,VALID,1003.31,VALID,0,VALID,90.9057,VALID,0,VALID,24.6945,VALID,350,VALID,0.286719,
2011-12-12, 00:44:04,VALID,1003.29,VALID,0,VALID,90.9591,VALID,0,VALID,24.675,VALID,350,VALID,0.541016,
2011-12-12, 00:45:04,VALID,1003.31,VALID,0,VALID,91.0965,VALID,0,VALID,24.6342,VALID,353,VALID,0.364844,
2011-12-12, 00:46:04,VALID,1003.32,VALID,0,VALID,91.2033,VALID,0,VALID,24.6361,VALID,353,VALID,0.141406,
2011-12-12, 00:47:04,VALID,1003.3,VALID,0,VALID,91.2567,VALID,0,VALID,24.6556,VALID,353,VALID,0.328125,
2011-12-12, 00:48:04,VALID,1003.31,VALID,0,VALID,91.4169,VALID,0,VALID,24.6556,VALID,353,VALID,0.307031,
2011-12-12, 00:49:04,VALID,1003.34,VALID,0,VALID,91.333,VALID,0,VALID,24.6556,VALID,353,VALID,0.256641,
2011-12-12, 00:50:04,VALID,1003.33,VALID,0,VALID,91.1956,VALID,0,VALID,24.675,VALID,353,VALID,0.167578,
2011-12-12, 00:51:04,VALID,1003.36,VALID,0,VALID,91.2796,VALID,0,VALID,24.6945,VALID,353,VALID,0,
2011-12-12, 00:52:04,VALID,1003.34,VALID,0,VALID,91.3558,VALID,0,VALID,24.6945,VALID,353,VALID,0,
2011-12-12, 00:53:04,VALID,1003.31,VALID,0,VALID,91.3253,VALID,0,VALID,24.7353,VALID,353,VALID,0,
2011-12-12, 00:54:04,VALID,1003.31,VALID,0,VALID,91.2643,VALID,0,VALID,24.714,VALID,353,VALID,0,
2011-12-12, 00:55:04,VALID,1003.29,VALID,0,VALID,91.1804,VALID,0,VALID,24.7724,VALID,353,VALID,0,
2011-12-12, 00:56:04,VALID,1003.29,VALID,0,VALID,90.982,VALID,0,VALID,24.8113,VALID,353,VALID,0,
2011-12-12, 00:57:04,VALID,1003.28,VALID,0,VALID,90.8066,VALID,0,VALID,24.8503,VALID,353,VALID,0,
2011-12-12, 00:58:04,VALID,1003.28,VALID,0,VALID,90.5701,VALID,0,VALID,24.8873,VALID,353,VALID,0,
2011-12-12, 00:59:04,VALID,1003.24,VALID,0,VALID,90.5777,VALID,0,VALID,24.9476,VALID,353,VALID,0,
2011-12-12, 01:00:04,VALID,1003.23,VALID,0,VALID,90.2115,VALID,0,VALID,24.9652,VALID,353,VALID,0,
2011-12-12, 01:01:04,VALID,1003.24,VALID,0,VALID,90.1429,VALID,0,VALID,25.0255,VALID,353,VALID,0,
2011-12-12, 01:02:04,VALID,1003.23,VALID,0,VALID,89.9445,VALID,0,VALID,25.0255,VALID,353,VALID,0,
2011-12-12, 01:03:04,VALID,1003.19,VALID,0,VALID,89.7004,VALID,0,VALID,25.045,VALID,353,VALID,0,
2011-12-12, 01:04:04,VALID,1003.12,VALID,0,VALID,89.6241,VALID,0,VALID,25.082,VALID,353,VALID,0,
2011-12-12, 01:05:04,VALID,1003.15,VALID,0,VALID,89.7309,VALID,0,VALID,25.1248,VALID,353,VALID,0,
2011-12-12, 01:06:04,VALID,1003.13,VALID,0,VALID,89.8835,VALID,0,VALID,25.082,VALID,353,VALID,0,
2011-12-12, 01:07:04,VALID,1003.13,VALID,0,VALID,89.8377,VALID,0,VALID,25.082,VALID,353,VALID,0,
2011-12-12, 01:08:04,VALID,1003.14,VALID,0,VALID,90.0513,VALID,0,VALID,25.1015,VALID,353,VALID,0,
2011-12-12, 01:09:04,VALID,1003.12,VALID,0,VALID,90.036,VALID,0,VALID,25.0839,VALID,353,VALID,0,
2011-12-12, 01:10:04,VALID,1003.14,VALID,0,VALID,90.1123,VALID,0,VALID,25.0644,VALID,353,VALID,0,
2011-12-12, 01:11:04,VALID,1003.14,VALID,0,VALID,90.4633,VALID,0,VALID,25.0255,VALID,353,VALID,0,
2011-12-12, 01:12:04,VALID,1003.12,VALID,0,VALID,90.4785,VALID,0,VALID,24.9847,VALID,353,VALID,0,
2011-12-12, 01:13:04,VALID,1003.13,VALID,0,VALID,90.5167,VALID,0,VALID,24.9652,VALID,353,VALID,0,
2011-12-12, 01:14:04,VALID,1003.09,VALID,0,VALID,90.5853,VALID,0,VALID,24.969,VALID,353,VALID,0,
2011-12-12, 01:15:04,VALID,1003.11,VALID,0,VALID,90.8523,VALID,0,VALID,24.9495,VALID,353,VALID,0,
2011-12-12, 01:16:04,VALID,1003.08,VALID,0,VALID,90.921,VALID,0,VALID,24.93,VALID,353,VALID,0,
2011-12-12, 01:17:04,VALID,1003.05,VALID,0,VALID,91.0354,VALID,0,VALID,24.9087,VALID,353,VALID,0,
2011-12-12, 01:18:04,VALID,1003.05,VALID,0,VALID,91.0049,VALID,0,VALID,24.93,VALID,353,VALID,0.507813,
2011-12-12, 01:19:04,VALID,1003.04,VALID,0,VALID,90.9134,VALID,0,VALID,24.9282,VALID,353,VALID,0.252344,
2011-12-12, 01:20:04,VALID,1003.03,VALID,0,VALID,91.0431,VALID,0,VALID,24.969,VALID,353,VALID,0.276172,
2011-12-12, 01:21:04,VALID,1003.04,VALID,0,VALID,91.0583,VALID,0,VALID,24.9885,VALID,353,VALID,0.341797,
2011-12-12, 01:22:04,VALID,1003.04,VALID,0,VALID,90.8905,VALID,0,VALID,24.9866,VALID,353,VALID,0.404297,
2011-12-12, 01:23:04,VALID,1003,VALID,0,VALID,90.9744,VALID,0,VALID,24.9671,VALID,353,VALID,0.270703,
2011-12-12, 01:24:04,VALID,1003.03,VALID,0,VALID,90.982,VALID,0,VALID,24.969,VALID,353,VALID,0.451953,
2011-12-12, 01:25:04,VALID,1002.99,VALID,0,VALID,90.9134,VALID,0,VALID,24.9885,VALID,353,VALID,0.40625,
2011-12-12, 01:26:04,VALID,1003,VALID,0,VALID,90.3793,VALID,0,VALID,24.969,VALID,353,VALID,0.448438,
2011-12-12, 01:27:04,VALID,1003,VALID,0,VALID,90.4099,VALID,0,VALID,25.0079,VALID,353,VALID,0,
2011-12-12, 01:28:04,VALID,1002.96,VALID,0,VALID,90.5624,VALID,0,VALID,25.0274,VALID,353,VALID,0.240234,
2011-12-12, 01:29:04,VALID,1002.93,VALID,0,VALID,90.5167,VALID,0,VALID,25.045,VALID,353,VALID,0.156641,
2011-12-12, 01:30:04,VALID,1002.91,VALID,0,VALID,90.2725,VALID,0.0815089,VALID,25.0431,VALID,353,VALID,0.200391,
2011-12-12, 01:31:04,VALID,1002.91,VALID,0,VALID,90.4022,VALID,0,VALID,25.0839,VALID,353,VALID,0,
2011-12-12, 01:32:04,VALID,1002.89,VALID,0,VALID,90.1886,VALID,0,VALID,25.0644,VALID,353,VALID,0,
2011-12-12, 01:33:04,VALID,1002.89,VALID,0,VALID,90.2878,VALID,0,VALID,25.1053,VALID,353,VALID,0.00429688,
2011-12-12, 01:34:04,VALID,1002.85,VALID,0,VALID,90.3946,VALID,0,VALID,25.082,VALID,353,VALID,0,
2011-12-12, 01:35:04,VALID,1002.88,VALID,0,VALID,90.4327,VALID,0,VALID,25.082,VALID,353,VALID,0,
2011-12-12, 01:36:04,VALID,1002.84,VALID,0,VALID,90.0818,VALID,0.0815089,VALID,25.1034,VALID,353,VALID,0.174219,
2011-12-12, 01:37:04,VALID,1002.85,VALID,0,VALID,90.4251,VALID,0,VALID,25.1229,VALID,353,VALID,0.435156,
2011-12-12, 01:38:04,VALID,1002.84,VALID,0,VALID,90.3412,VALID,0,VALID,25.1034,VALID,353,VALID,0.386719,
2011-12-12, 01:39:04,VALID,1002.83,VALID,0,VALID,90.12,VALID,0,VALID,25.1015,VALID,353,VALID,0.208594,
2011-12-12, 01:40:04,VALID,1002.82,VALID,0,VALID,90.1657,VALID,0,VALID,25.1034,VALID,353,VALID,0.330859,
2011-12-12, 01:41:04,VALID,1002.77,VALID,0,VALID,90.3183,VALID,0,VALID,25.1034,VALID,353,VALID,0.562109,
2011-12-12, 01:42:04,VALID,1002.76,VALID,0,VALID,90.6464,VALID,0,VALID,25.0839,VALID,353,VALID,0.165234,
2011-12-12, 01:43:04,VALID,1002.77,VALID,0,VALID,90.593,VALID,0,VALID,25.0839,VALID,353,VALID,0.282031,
2011-12-12, 01:44:04,VALID,1002.75,VALID,0,VALID,90.4404,VALID,0,VALID,25.045,VALID,353,VALID,0.258594,
2011-12-12, 01:45:04,VALID,1002.78,VALID,0,VALID,90.6235,VALID,0,VALID,25.045,VALID,353,VALID,0.00273437,
2011-12-12, 01:46:04,VALID,1002.75,VALID,0,VALID,90.6692,VALID,0.0815089,VALID,25.045,VALID,353,VALID,0.0625,
2011-12-12, 01:47:04,VALID,1002.75,VALID,0,VALID,90.8371,VALID,0,VALID,25.0255,VALID,353,VALID,0,
2011-12-12, 01:48:04,VALID,1002.73,VALID,0,VALID,90.9744,VALID,0,VALID,25.045,VALID,353,VALID,0,
2011-12-12, 01:49:04,VALID,1002.7,VALID,0,VALID,90.9439,VALID,0,VALID,25.045,VALID,353,VALID,0.103125,
2011-12-12, 01:50:04,VALID,1002.75,VALID,0,VALID,90.9591,VALID,0,VALID,25.0236,VALID,353,VALID,0.00429688,
2011-12-12, 01:51:04,VALID,1002.7,VALID,0,VALID,90.982,VALID,0,VALID,25.0041,VALID,353,VALID,0.212109,
2011-12-12, 01:52:04,VALID,1002.7,VALID,0,VALID,90.8447,VALID,0,VALID,25.0255,VALID,353,VALID,0.305469,
2011-12-12, 01:53:04,VALID,1002.7,VALID,0,VALID,90.8981,VALID,0,VALID,25.0255,VALID,353,VALID,0.445703,
2011-12-12, 01:54:04,VALID,1002.67,VALID,0,VALID,91.1041,VALID,0,VALID,25.0041,VALID,353,VALID,0.343359,
2011-12-12, 01:55:04,VALID,1002.68,VALID,0,VALID,91.127,VALID,0,VALID,25.045,VALID,353,VALID,0.126172,
2011-12-12, 01:56:04,VALID,1002.67,VALID,0,VALID,90.9515,VALID,0,VALID,25.0255,VALID,353,VALID,0,
2011-12-12, 01:57:04,VALID,1002.66,VALID,0,VALID,91.1117,VALID,0,VALID,25.0255,VALID,353,VALID,0,
2011-12-12, 01:58:04,VALID,1002.62,VALID,0,VALID,91.1956,VALID,0,VALID,25.0255,VALID,353,VALID,0,
2011-12-12, 01:59:04,VALID,1002.64,VALID,0,VALID,91.0431,VALID,0,VALID,25.006,VALID,353,VALID,0,
2011-12-12, 02:00:04,VALID,1002.61,VALID,0,VALID,91.1117,VALID,0,VALID,25.0041,VALID,353,VALID,0,
2011-12-12, 02:01:04,VALID,1002.61,VALID,0,VALID,91.2872,VALID,0,VALID,25.0255,VALID,353,VALID,0.326172,
2011-12-12, 02:02:04,VALID,1002.59,VALID,0,VALID,91.2567,VALID,0.0815089,VALID,25.0255,VALID,352,VALID,0.148047,
2011-12-12, 02:03:04,VALID,1002.57,VALID,0,VALID,91.3635,VALID,0,VALID,25.045,VALID,352,VALID,0.0941406,
2011-12-12, 02:04:04,VALID,1002.56,VALID,0,VALID,91.5237,VALID,0,VALID,25.045,VALID,352,VALID,0.103125,
2011-12-12, 02:05:04,VALID,1002.54,VALID,0,VALID,91.3482,VALID,0,VALID,25.0255,VALID,352,VALID,0.431641,
2011-12-12, 02:06:04,VALID,1002.53,VALID,0,VALID,91.4779,VALID,0,VALID,25.0255,VALID,352,VALID,0.371484,
2011-12-12, 02:07:04,VALID,1002.56,VALID,0,VALID,91.4321,VALID,0,VALID,25.0255,VALID,352,VALID,0.182422,
2011-12-12, 02:08:04,VALID,1002.56,VALID,0,VALID,91.3711,VALID,0,VALID,25.006,VALID,352,VALID,0,
2011-12-12, 02:09:04,VALID,1002.53,VALID,0,VALID,91.6534,VALID,0.0815089,VALID,24.9847,VALID,352,VALID,0,
2011-12-12, 02:10:04,VALID,1002.54,VALID,0,VALID,91.6076,VALID,0,VALID,25.006,VALID,352,VALID,0,
2011-12-12, 02:11:04,VALID,1002.52,VALID,0,VALID,91.6457,VALID,0,VALID,25.006,VALID,352,VALID,0.289844,
2011-12-12, 02:12:04,VALID,1002.5,VALID,0,VALID,91.8136,VALID,0.0815089,VALID,25.006,VALID,352,VALID,0.551953,
2011-12-12, 02:13:04,VALID,1002.5,VALID,0,VALID,91.8822,VALID,0,VALID,24.9866,VALID,352,VALID,0.435547,
2011-12-12, 02:14:04,VALID,1002.47,VALID,0,VALID,91.8517,VALID,0,VALID,24.9866,VALID,352,VALID,0.287109,
2011-12-12, 02:15:04,VALID,1002.45,VALID,0,VALID,91.8746,VALID,0,VALID,24.9671,VALID,352,VALID,0.332031,
2011-12-12, 02:16:04,VALID,1002.44,VALID,0,VALID,91.9356,VALID,0,VALID,24.9671,VALID,352,VALID,0.128125,
2011-12-12, 02:17:04,VALID,1002.47,VALID,0,VALID,91.9738,VALID,0,VALID,24.9476,VALID,352,VALID,0.240234,
2011-12-12, 02:18:04,VALID,1002.44,VALID,0,VALID,91.928,VALID,0,VALID,24.9476,VALID,352,VALID,0,
2011-12-12, 02:19:04,VALID,1002.44,VALID,0,VALID,91.989,VALID,0,VALID,24.9476,VALID,352,VALID,0.0433594,
2011-12-12, 02:20:04,VALID,1002.44,VALID,0,VALID,92.0196,VALID,0,VALID,24.9476,VALID,352,VALID,0.178125,
2011-12-12, 02:21:04,VALID,1002.43,VALID,0,VALID,92.0501,VALID,0.0815089,VALID,24.9476,VALID,352,VALID,0,
2011-12-12, 02:22:04,VALID,1002.41,VALID,0,VALID,91.8594,VALID,0,VALID,24.9476,VALID,352,VALID,0,
2011-12-12, 02:23:04,VALID,1002.44,VALID,0,VALID,91.867,VALID,0,VALID,24.9282,VALID,352,VALID,0,
2011-12-12, 02:24:04,VALID,1002.4,VALID,0,VALID,91.7449,VALID,0,VALID,24.9068,VALID,352,VALID,0,
2011-12-12, 02:25:04,VALID,1002.39,VALID,0,VALID,91.8441,VALID,0,VALID,24.9263,VALID,352,VALID,0.0625,
2011-12-12, 02:26:04,VALID,1002.4,VALID,0,VALID,91.6534,VALID,0,VALID,24.9866,VALID,352,VALID,0.582812,
2011-12-12, 02:27:04,VALID,1002.37,VALID,0,VALID,91.7907,VALID,0,VALID,24.9652,VALID,352,VALID,0.344141,
2011-12-12, 02:28:04,VALID,1002.34,VALID,0,VALID,91.7907,VALID,0,VALID,24.9866,VALID,352,VALID,0.336328,
2011-12-12, 02:29:04,VALID,1002.33,VALID,0,VALID,91.5389,VALID,0,VALID,25.0255,VALID,352,VALID,0.373828,
2011-12-12, 02:30:04,VALID,1002.33,VALID,0,VALID,91.5161,VALID,0.0815089,VALID,25.0041,VALID,352,VALID,0.375,
2011-12-12, 02:31:04,VALID,1002.33,VALID,0,VALID,91.394,VALID,0,VALID,25.006,VALID,352,VALID,0.244531,
2011-12-12, 02:32:04,VALID,1002.33,VALID,0,VALID,91.5695,VALID,0,VALID,25.0255,VALID,352,VALID,0.272656,
2011-12-12, 02:33:04,VALID,1002.28,VALID,0,VALID,91.5542,VALID,0,VALID,25.006,VALID,352,VALID,0,
2011-12-12, 02:34:04,VALID,1002.27,VALID,0,VALID,91.5542,VALID,0,VALID,25.0255,VALID,352,VALID,0.199219,
2011-12-12, 02:35:04,VALID,1002.26,VALID,0,VALID,91.455,VALID,0,VALID,25.006,VALID,352,VALID,0.216016,
2011-12-12, 02:36:04,VALID,1002.21,VALID,0,VALID,91.5084,VALID,0,VALID,25.0255,VALID,352,VALID,0,
2011-12-12, 02:37:04,VALID,1002.18,VALID,0,VALID,91.4321,VALID,0,VALID,25.0255,VALID,352,VALID,0,
2011-12-12, 02:38:04,VALID,1002.19,VALID,0,VALID,91.2338,VALID,0,VALID,25.0255,VALID,352,VALID,0.298047,
2011-12-12, 02:39:04,VALID,1002.14,VALID,0,VALID,91.4169,VALID,0,VALID,25.045,VALID,352,VALID,0.00664063,
2011-12-12, 02:40:04,VALID,1002.16,VALID,0,VALID,91.3177,VALID,0.0815089,VALID,25.045,VALID,352,VALID,0.187891,
2011-12-12, 02:41:04,VALID,1002.17,VALID,0,VALID,91.0507,VALID,0,VALID,25.0644,VALID,352,VALID,0.0121094,
2011-12-12, 02:42:04,VALID,1002.15,VALID,0,VALID,91.0354,VALID,0,VALID,25.0625,VALID,352,VALID,0,
2011-12-12, 02:43:04,VALID,1002.17,VALID,0,VALID,90.982,VALID,0.0815089,VALID,25.1034,VALID,352,VALID,0,
2011-12-12, 02:44:04,VALID,1002.16,VALID,0,VALID,91.0736,VALID,0,VALID,25.1034,VALID,352,VALID,0.140625,
2011-12-12, 02:45:04,VALID,1002.16,VALID,0,VALID,90.7684,VALID,0,VALID,25.1015,VALID,352,VALID,0.455469,
2011-12-12, 02:46:04,VALID,1002.13,VALID,0,VALID,90.982,VALID,0.0815089,VALID,25.1229,VALID,352,VALID,0.471875,
2011-12-12, 02:47:04,VALID,1002.12,VALID,0,VALID,90.8523,VALID,0.0815089,VALID,25.1229,VALID,352,VALID,0.444531,
2011-12-12, 02:48:04,VALID,1002.14,VALID,0,VALID,90.776,VALID,0,VALID,25.1015,VALID,352,VALID,0.298047,
2011-12-12, 02:49:04,VALID,1002.12,VALID,0,VALID,90.7684,VALID,0,VALID,25.1034,VALID,352,VALID,0.425781,
2011-12-12, 02:50:04,VALID,1002.13,VALID,0,VALID,90.7684,VALID,0,VALID,25.121,VALID,352,VALID,0.309766,
2011-12-12, 02:51:04,VALID,1002.12,VALID,0,VALID,90.9515,VALID,0,VALID,25.1423,VALID,352,VALID,0.340234,
2011-12-12, 02:52:04,VALID,1002.12,VALID,0,VALID,90.8752,VALID,0,VALID,25.1034,VALID,352,VALID,0.3625,
2011-12-12, 02:53:04,VALID,1002.11,VALID,0,VALID,90.9668,VALID,0.0815089,VALID,25.082,VALID,353,VALID,0.485938,
2011-12-12, 02:54:04,VALID,1002.11,VALID,0,VALID,90.9363,VALID,0.0815089,VALID,25.1034,VALID,353,VALID,0.308984,
2011-12-12, 02:55:04,VALID,1002.08,VALID,0,VALID,91.0049,VALID,0.0815089,VALID,25.0644,VALID,353,VALID,0.143359,
2011-12-12, 02:56:04,VALID,1002.08,VALID,0,VALID,90.9057,VALID,0,VALID,25.0839,VALID,352,VALID,0.311328,
2011-12-12, 02:57:04,VALID,1002.08,VALID,0,VALID,90.8905,VALID,0,VALID,25.1034,VALID,352,VALID,0,
2011-12-12, 02:58:04,VALID,1002.08,VALID,0,VALID,90.6311,VALID,0.0815089,VALID,25.1442,VALID,352,VALID,0,
2011-12-12, 02:59:04,VALID,1002.06,VALID,0,VALID,90.3565,VALID,0.0815089,VALID,25.1423,VALID,356,VALID,0.380078,
2011-12-12, 03:00:04,VALID,1002.09,VALID,0,VALID,89.7919,VALID,0,VALID,25.1618,VALID,344,VALID,0.519141,
2011-12-12, 03:01:04,VALID,1002.07,VALID,0,VALID,89.6012,VALID,0.0815089,VALID,25.2202,VALID,345,VALID,0.607031,
2011-12-12, 03:02:04,VALID,1002.09,VALID,0,VALID,89.2045,VALID,0,VALID,25.2592,VALID,346,VALID,0.341406,
2011-12-12, 03:03:04,VALID,1002.1,VALID,0,VALID,88.968,VALID,0,VALID,25.2981,VALID,346,VALID,0.460938,
2011-12-12, 03:04:04,VALID,1002.1,VALID,0,VALID,89.3418,VALID,0,VALID,25.3176,VALID,346,VALID,0.523047,
2011-12-12, 03:05:04,VALID,1002.08,VALID,0,VALID,89.0672,VALID,0,VALID,25.2981,VALID,346,VALID,0.485156,
2011-12-12, 03:06:04,VALID,1002.09,VALID,0,VALID,89.1892,VALID,0,VALID,25.2962,VALID,346,VALID,0.564062,
2011-12-12, 03:07:04,VALID,1002.07,VALID,0,VALID,89.2503,VALID,0,VALID,25.2786,VALID,346,VALID,0.533203,
2011-12-12, 03:08:04,VALID,1002.08,VALID,0,VALID,89.5402,VALID,0.0815089,VALID,25.2786,VALID,345,VALID,0.605859,
2011-12-12, 03:09:04,VALID,1002.07,VALID,0,VALID,89.8987,VALID,0,VALID,25.2378,VALID,344,VALID,0.451953,
2011-12-12, 03:10:04,VALID,1002.09,VALID,0,VALID,89.4028,VALID,0,VALID,25.2397,VALID,343,VALID,0.539844,
2011-12-12, 03:11:04,VALID,1002.05,VALID,0,VALID,89.3723,VALID,0,VALID,25.2397,VALID,348,VALID,0.655078,
2011-12-12, 03:12:04,VALID,1002.09,VALID,0,VALID,89.4486,VALID,0,VALID,25.2592,VALID,349,VALID,0.406641,
2011-12-12, 03:13:04,VALID,1002.05,VALID,0,VALID,89.0138,VALID,0,VALID,25.2572,VALID,349,VALID,0.271094,
2011-12-12, 03:14:04,VALID,1002.08,VALID,0,VALID,89.1664,VALID,0,VALID,25.2786,VALID,349,VALID,0.344141,
2011-12-12, 03:15:04,VALID,1002.09,VALID,0,VALID,88.9451,VALID,0,VALID,25.3195,VALID,349,VALID,0.488672,
2011-12-12, 03:16:04,VALID,1002.12,VALID,0,VALID,88.9451,VALID,0,VALID,25.2786,VALID,349,VALID,0.135547,
2011-12-12, 03:17:04,VALID,1002.11,VALID,0,VALID,88.4187,VALID,0,VALID,25.3176,VALID,341,VALID,0.882422,
2011-12-12, 03:18:04,VALID,1002.12,VALID,0,VALID,88.2814,VALID,0,VALID,25.3955,VALID,347,VALID,0.515234,
2011-12-12, 03:19:04,VALID,1002.12,VALID,0,VALID,88.3348,VALID,0,VALID,25.4344,VALID,347,VALID,0.6625,
2011-12-12, 03:20:04,VALID,1002.12,VALID,0,VALID,88.3348,VALID,0,VALID,25.4558,VALID,347,VALID,0.637891,
2011-12-12, 03:21:04,VALID,1002.15,VALID,0,VALID,88.434,VALID,0,VALID,25.4363,VALID,347,VALID,0.598047,
2011-12-12, 03:22:04,VALID,1002.17,VALID,0,VALID,88.6171,VALID,0,VALID,25.376,VALID,347,VALID,0.657031,
2011-12-12, 03:23:04,VALID,1002.17,VALID,0,VALID,88.7391,VALID,0,VALID,25.3351,VALID,347,VALID,0.538672,
2011-12-12, 03:24:04,VALID,1002.16,VALID,0,VALID,88.9222,VALID,0,VALID,25.337,VALID,347,VALID,0.303125,
2011-12-12, 03:25:04,VALID,1002.19,VALID,0,VALID,89.0061,VALID,0,VALID,25.337,VALID,347,VALID,0,
2011-12-12, 03:26:04,VALID,1002.23,VALID,0,VALID,89.2045,VALID,0,VALID,25.337,VALID,347,VALID,0.287109,
2011-12-12, 03:27:04,VALID,1002.22,VALID,0,VALID,89.1206,VALID,0,VALID,25.3176,VALID,347,VALID,0.339844,
2011-12-12, 03:28:04,VALID,1002.26,VALID,0,VALID,89.296,VALID,0,VALID,25.3195,VALID,347,VALID,0.367969,
2011-12-12, 03:29:04,VALID,1002.26,VALID,0,VALID,89.5249,VALID,0,VALID,25.2786,VALID,348,VALID,0.544922,
2011-12-12, 03:30:04,VALID,1002.26,VALID,0,VALID,89.1358,VALID,0,VALID,25.2397,VALID,347,VALID,0.374219,
2011-12-12, 03:31:04,VALID,1002.27,VALID,0,VALID,89.38,VALID,0,VALID,25.2786,VALID,347,VALID,0.554688,
2011-12-12, 03:32:04,VALID,1002.31,VALID,0,VALID,89.6012,VALID,0,VALID,25.2786,VALID,348,VALID,0.657812,
2011-12-12, 03:33:04,VALID,1002.29,VALID,0,VALID,89.4791,VALID,0,VALID,25.2416,VALID,347,VALID,0.726563,
2011-12-12, 03:34:04,VALID,1002.29,VALID,0,VALID,89.5173,VALID,0,VALID,25.2202,VALID,347,VALID,0.661328,
2011-12-12, 03:35:04,VALID,1002.29,VALID,0,VALID,89.7233,VALID,0,VALID,25.2202,VALID,349,VALID,0.588281,
2011-12-12, 03:36:04,VALID,1002.3,VALID,0,VALID,89.3647,VALID,0,VALID,25.2007,VALID,349,VALID,0.576563,
2011-12-12, 03:37:04,VALID,1002.3,VALID,0,VALID,89.4563,VALID,0,VALID,25.2202,VALID,347,VALID,0.549609,
2011-12-12, 03:38:04,VALID,1002.32,VALID,0,VALID,89.38,VALID,0,VALID,25.2202,VALID,347,VALID,0.420312,
2011-12-12, 03:39:04,VALID,1002.31,VALID,0,VALID,89.8606,VALID,0,VALID,25.2397,VALID,347,VALID,0.404687,
2011-12-12, 03:40:04,VALID,1002.33,VALID,0,VALID,89.5478,VALID,0,VALID,25.2202,VALID,347,VALID,0.526563,
2011-12-12, 03:41:04,VALID,1002.35,VALID,0,VALID,89.3189,VALID,0,VALID,25.2007,VALID,347,VALID,0.411328,
2011-12-12, 03:42:04,VALID,1002.36,VALID,0,VALID,89.4257,VALID,0,VALID,25.2202,VALID,347,VALID,0.483594,
2011-12-12, 03:43:04,VALID,1002.38,VALID,0,VALID,89.4944,VALID,0,VALID,25.2202,VALID,347,VALID,0.326562,
2011-12-12, 03:44:04,VALID,1002.41,VALID,0,VALID,89.6088,VALID,0,VALID,25.2397,VALID,347,VALID,0.375781,
2011-12-12, 03:45:04,VALID,1002.43,VALID,0,VALID,89.5402,VALID,0,VALID,25.2397,VALID,347,VALID,0.325391,
2011-12-12, 03:46:04,VALID,1002.47,VALID,0,VALID,89.3723,VALID,0,VALID,25.2611,VALID,347,VALID,0.571484,
2011-12-12, 03:47:04,VALID,1002.44,VALID,0,VALID,89.3952,VALID,0,VALID,25.2397,VALID,347,VALID,0.476172,